Погода в Каменке

Украина / Житомирская область     49°55′49″N   29°24′32″E
темп.,
°C
ветер,
м/с
пор.,
м/с
влажн.,
%
обл.,
%
осадки,
мм/ч
давл.,
гПа
погр.,
м
21 апреля, ср
ср2100:00+6ссз3586100 0.1 1010122
03:00+5зсз2489100 0.1 1011134
06:00+5з3594100 0.5 1010157
09:00+7зсз4780100 0.6 1012391
12:00+11зсз5753100 0.1 10121753
15:00+11з5659100 0.1 10131313
18:00+11зюз3664100 0.0 1013377
21:00+9юз377457 0.1 1014132
22 апреля, чт
чт2200:00+7ююз48825 0.0 1015145
03:00+6юз4108471 0.0 1015192
06:00+6юз488446 0.0 1016134
09:00+11ююз586849 0.0 1016404
12:00+15ююз695367 0.0 10161487
15:00+15юз5955100 0.1 1015818
18:00+14юз496592 0.2 1014473
21:00+9з41089100 0.9 1016364
23 апреля, пт
пт2300:00+8ююз468984 0.3 1015151
03:00+7з379480 0.4 1015315
06:00+5сз4791100 0.1 1016548
09:00+6сз3579100 0.4 1017636
12:00+7сз4566100 0.3 10171199
15:00+8з4655100 0.4 10171493
18:00+8зсз575733 0.1 10161344
21:00+5зсз367286 0.3 1017112
24 апреля, сб
сб2400:00+3з38795 0.0 1017176
03:00+2зюз398299 0.0 1016189
06:00+2з5997100 0.3 1016418
09:00+3зсз798399 0.6 1017923
12:00+4зсз81168100 0.4 10181441
15:00+7зсз81047100 0.4 10182126
18:00+7зсз7115423 0.1 10181921
21:00+3зюз49667 0.1 1019228
25 апреля, вс
вс2500:00+2з5127520 0.0 1019351
03:00+1з411772 0.0 1020281
06:000з410833 0.0 1020251
09:00+4з796390 0.0 1019850
12:00+6зсз7105897 0.6 10201789
15:00+8зсз8945100 0.7 10192262
18:00+6зсз794982 0.1 10192110
21:00+3з38659 0.1 1020174